Terminal Aerodrome Forecast
Issued by NWS Cleveland, OH

Home | Current Version | Previous Version | Graphics & Text | Print | Product List | Glossary On
Versions: 1 2 3 4 5 6 7 8 9 10 11 12 13 14
000
FTUS41 KCLE 260648 AAA
TAFCAK
TAF AMD
KCAK 260648Z 2607/2706 28005KT P6SM SCT018 BKN050
      TEMPO 2607/2611 BKN018
     FM261100 28005KT P6SM BKN018 OVC040
     FM261500 30008KT P6SM OVC035
     FM270000 32004KT P6SM BKN035=

USA.gov is the U.S. government's official web portal to all federal, state and local government web resources and services.